TimeCST,TemperatureF,Dew PointF,Humidity,Sea Level PressureIn,VisibilityMPH,Wind Direction,Wind SpeedMPH,Gust SpeedMPH,PrecipitationIn,Events,Conditions,WindDirDegrees,DateUTC
12:15 AM,-20.2,-27.4,69,30.59,10.0,Calm,Calm,-,N/A,,Clear,0,2013-01-24 06:15:00
12:35 AM,-20.2,-27.4,69,30.59,10.0,Calm,Calm,-,N/A,,Clear,0,2013-01-24 06:35:00
12:55 AM,-20.2,-27.4,69,30.58,10.0,NE,4.6,-,N/A,,Clear,50,2013-01-24 06:55:00
1:15 AM,-20.2,-27.4,69,30.58,10.0,NE,3.5,-,N/A,,Clear,50,2013-01-24 07:15:00
1:35 AM,-20.2,-27.4,69,30.58,10.0,Calm,Calm,-,N/A,,Clear,0,2013-01-24 07:35:00
1:55 AM,-20.2,-27.4,69,30.59,10.0,Calm,Calm,-,N/A,,Clear,0,2013-01-24 07:55:00
2:15 AM,-20.2,-27.4,69,30.59,10.0,Calm,Calm,-,N/A,,Clear,0,2013-01-24 08:15:00
2:35 AM,-20.2,-25.6,76,30.59,10.0,Calm,Calm,-,N/A,,Clear,0,2013-01-24 08:35:00
2:55 AM,-18.4,-25.6,70,30.58,10.0,East,3.5,-,N/A,,Clear,100,2013-01-24 08:55:00
3:15 AM,-18.4,-25.6,70,30.58,10.0,Calm,Calm,-,N/A,,Clear,0,2013-01-24 09:15:00
3:35 AM,-18.4,-25.6,70,30.58,10.0,SSE,4.6,-,N/A,,Clear,160,2013-01-24 09:35:00
3:55 AM,-18.4,-25.6,70,30.57,10.0,SE,4.6,-,N/A,,Clear,140,2013-01-24 09:55:00
4:15 AM,-18.4,-23.8,76,30.57,10.0,SSE,4.6,-,N/A,,Clear,150,2013-01-24 10:15:00
4:35 AM,-18.4,-23.8,76,30.56,10.0,SSE,4.6,-,N/A,,Scattered Clouds,150,2013-01-24 10:35:00
4:56 AM,-16.6,-23.8,70,30.56,10.0,SE,4.6,-,N/A,,Scattered Clouds,130,2013-01-24 10:56:00
5:15 AM,-16.6,-22.0,76,30.55,10.0,Calm,Calm,-,N/A,,Clear,0,2013-01-24 11:15:00
5:35 AM,-16.6,-22.0,76,30.55,10.0,SE,6.9,-,N/A,,Clear,130,2013-01-24 11:35:00
5:55 AM,-16.6,-20.2,84,30.56,10.0,SSE,5.8,-,N/A,,Clear,150,2013-01-24 11:55:00
6:15 AM,-14.8,-20.2,77,30.56,10.0,SSE,6.9,-,N/A,,Clear,160,2013-01-24 12:15:00
6:35 AM,-14.8,-22.0,70,30.56,10.0,SSE,9.2,-,N/A,,Clear,160,2013-01-24 12:35:00
6:55 AM,-14.8,-22.0,70,30.55,10.0,South,6.9,-,N/A,,Clear,170,2013-01-24 12:55:00
7:15 AM,-14.8,-20.2,77,30.54,10.0,SSE,6.9,-,N/A,,Clear,150,2013-01-24 13:15:00
7:35 AM,-13.0,-18.4,77,30.52,10.0,SSE,8.1,-,N/A,,Clear,150,2013-01-24 13:35:00
7:55 AM,-13.0,-18.4,77,30.50,10.0,SE,8.1,-,N/A,,Clear,140,2013-01-24 13:55:00
8:15 AM,-11.2,-18.4,70,30.49,10.0,SSE,6.9,-,N/A,,Clear,150,2013-01-24 14:15:00
8:35 AM,-11.2,-18.4,70,30.48,10.0,SE,6.9,-,N/A,,Clear,140,2013-01-24 14:35:00
8:55 AM,-11.2,-20.2,64,30.48,10.0,SSE,8.1,-,N/A,,Clear,160,2013-01-24 14:55:00
9:15 AM,-11.2,-18.4,70,30.46,10.0,SE,6.9,-,N/A,,Clear,140,2013-01-24 15:15:00
9:35 AM,-9.4,-16.6,71,30.46,10.0,SE,6.9,-,N/A,,Clear,130,2013-01-24 15:35:00
9:55 AM,-9.4,-14.8,77,30.46,10.0,SSE,6.9,-,N/A,,Scattered Clouds,150,2013-01-24 15:55:00
10:15 AM,-9.4,-14.8,77,30.45,10.0,SE,8.1,-,N/A,,Mostly Cloudy,140,2013-01-24 16:15:00
10:35 AM,-7.6,-14.8,71,30.44,10.0,SE,9.2,-,N/A,,Overcast,130,2013-01-24 16:35:00
10:55 AM,-7.6,-14.8,71,30.43,10.0,SE,9.2,-,N/A,,Overcast,130,2013-01-24 16:55:00
11:15 AM,-7.6,-13.0,77,30.41,10.0,SE,6.9,-,N/A,,Overcast,130,2013-01-24 17:15:00
11:35 AM,-5.8,-13.0,71,30.39,10.0,SE,11.5,16.1,N/A,,Overcast,140,2013-01-24 17:35:00
11:55 AM,-5.8,-14.8,65,30.39,10.0,SE,5.8,-,N/A,,Overcast,140,2013-01-24 17:55:00
12:15 PM,-5.8,-14.8,65,30.38,10.0,SSE,9.2,-,N/A,,Overcast,150,2013-01-24 18:15:00
12:35 PM,-4.0,-11.2,71,30.37,10.0,SE,8.1,-,N/A,,Overcast,140,2013-01-24 18:35:00
12:56 PM,-2.2,-11.2,66,30.36,10.0,SSE,9.2,-,N/A,,Overcast,150,2013-01-24 18:56:00
1:15 PM,-2.2,-11.2,66,30.35,10.0,SE,6.9,-,N/A,,Overcast,140,2013-01-24 19:15:00
1:35 PM,-2.2,-9.4,71,30.34,10.0,SE,6.9,-,N/A,,Overcast,140,2013-01-24 19:35:00
1:56 PM,-2.2,-9.4,71,30.31,10.0,SE,9.2,-,N/A,,Scattered Clouds,130,2013-01-24 19:56:00
2:14 PM,-2.2,-11.2,66,30.28,10.0,SE,10.4,-,N/A,,Clear,130,2013-01-24 20:14:00
2:35 PM,-0.4,-11.2,60,30.26,10.0,SE,10.4,-,N/A,,Clear,130,2013-01-24 20:35:00
2:55 PM,-0.4,-11.2,60,30.25,10.0,SE,10.4,-,N/A,,Scattered Clouds,140,2013-01-24 20:55:00
3:15 PM,-0.4,-11.2,60,30.25,10.0,SE,10.4,-,N/A,,Scattered Clouds,140,2013-01-24 21:15:00
3:35 PM,-0.4,-9.4,66,30.23,10.0,SE,10.4,-,N/A,,Mostly Cloudy,140,2013-01-24 21:35:00
3:55 PM,-0.4,-11.2,60,30.21,10.0,SE,11.5,16.1,N/A,,Overcast,140,2013-01-24 21:55:00
4:15 PM,-0.4,-11.2,60,30.18,4.0,SE,13.8,-,N/A,Snow,Light Snow,140,2013-01-24 22:15:00
4:35 PM,-0.4,-9.4,66,30.17,5.0,SE,11.5,17.3,N/A,Snow,Light Snow,130,2013-01-24 22:35:00
4:55 PM,-0.4,-9.4,66,30.16,10.0,SE,10.4,-,N/A,,Overcast,130,2013-01-24 22:55:00
5:16 PM,-0.4,-9.4,66,30.15,5.0,SE,11.5,-,N/A,Snow,Light Snow,140,2013-01-24 23:16:00
5:35 PM,-0.4,-9.4,66,30.11,4.0,SE,12.7,-,N/A,Snow,Light Snow,130,2013-01-24 23:35:00
5:55 PM,-0.4,-7.6,72,30.08,10.0,SE,13.8,-,N/A,,Overcast,130,2013-01-24 23:55:00
6:14 PM,-0.4,-7.6,72,30.06,10.0,SE,15.0,21.9,N/A,,Overcast,140,2013-01-25 00:14:00
6:35 PM,-0.4,-5.8,78,30.09,10.0,SSE,9.2,16.1,N/A,,Overcast,150,2013-01-25 00:35:00
6:55 PM,1.4,-7.6,66,30.10,10.0,SSE,9.2,-,N/A,,Overcast,160,2013-01-25 00:55:00
7:15 PM,1.4,-7.6,66,30.08,10.0,SSE,12.7,18.4,N/A,,Overcast,150,2013-01-25 01:15:00
7:35 PM,1.4,-7.6,66,30.10,10.0,South,11.5,-,N/A,,Overcast,170,2013-01-25 01:35:00
7:55 PM,1.4,-7.6,66,30.09,10.0,South,16.1,-,N/A,,Overcast,170,2013-01-25 01:55:00
8:15 PM,1.4,-7.6,66,30.07,10.0,South,15.0,-,N/A,,Overcast,170,2013-01-25 02:15:00
8:35 PM,1.4,-5.8,72,30.05,10.0,South,19.6,24.2,N/A,,Overcast,170,2013-01-25 02:35:00
8:55 PM,3.2,-5.8,66,30.03,5.0,South,23.0,26.5,N/A,,Haze,170,2013-01-25 02:55:00
9:15 PM,1.4,-5.8,72,30.01,7.0,South,20.7,-,N/A,,Overcast,170,2013-01-25 03:15:00
9:35 PM,3.2,-4.0,72,30.03,10.0,South,17.3,21.9,N/A,,Overcast,170,2013-01-25 03:35:00
9:55 PM,3.2,-2.2,78,30.02,5.0,South,18.4,23.0,N/A,Snow,Light Snow,170,2013-01-25 03:55:00
10:15 PM,3.2,-2.2,78,30.00,2.5,South,18.4,24.2,N/A,Snow,Light Snow,170,2013-01-25 04:15:00
10:35 PM,3.2,-2.2,78,29.99,3.0,South,19.6,-,N/A,Snow,Light Snow,170,2013-01-25 04:35:00
10:55 PM,3.2,-0.4,85,29.98,3.0,South,16.1,-,N/A,,Haze,170,2013-01-25 04:55:00
11:15 PM,3.2,-0.4,85,29.97,5.0,South,18.4,-,N/A,,Haze,170,2013-01-25 05:15:00
11:35 PM,3.2,-0.4,85,29.95,4.0,South,20.7,-,N/A,,Haze,170,2013-01-25 05:35:00
11:55 PM,3.2,-0.4,85,29.93,4.0,South,20.7,-,N/A,,Overcast,170,2013-01-25 05:55:00